Погода в Нахчиване

Погода в Нахчиване : погода сейчас, прогноз погоды и архив. Всё, что Вы хотите узнать о погоде в Нахчиване!

Поиск расширенной информации на нашем сайте:

Другие новости

Новости СМИ2

Главная страница сайта

Новости сайта

03.07.2017

Напоминаем, что на нашем специализированном сайте Метеоцентр.Азия вы можете получить высокодетализированные автоматические прогнозы погоды по пунктам России, СНГ и мира в авиационном формате (включающие направление и скорость ветра, видимость, явления погоды, количество и форму облачности, нижнюю и верхнюю границу облачности).


Погода в Нахчиване - сегодня

Время (UTC), дата Ветер
(°,м/с) 
Видим.   Явления Облачность Т
(°С)
Тd
(°С)
f(%) Тe
(°С)
Pmin
(гПа)
dP
(гПа)
Po
(мм)
O2
(г/м3)
Тmin Tmax R s Состояние
почвы
03 15.11.18 тихо ()   н/о  {ливн. осадки}  10/3 600 м кучево-дожд., средняя 
[Cb cap|Ac trans]
+6.6 +2.7 76 +7  1017.7  -0.3  686  269           
06 15.11.18 140 (ЮВ) 20000 м  {ливн. осадки}  8/3 600 м кучево-дожд., средняя, верхняя 
[Cb cap|Ac trans|Ci fib]
+7.4 +2.7 72 +6  1017.6  0.2  686  269  +6.5    0.0    влажная 
09 15.11.18 170 (Ю) 20000 м    8/3 600 м кучево-дожд., средняя, верхняя 
[Cb cap|Ac trans|Ci fib]
+11.6 +3.8 59 +11  1015.7  -0.8  686  264           
12 15.11.18 170 (Ю) 20000 м    8/3 600 м кучево-дожд., средняя 
[Cb cap|Ac trans]
+11.4 +4.3 62 +11  1014.3  -1  685  264           
15 15.11.18 130 (ЮВ) н/о    8/3 600 м кучево-дожд., средняя 
[Cb cap|Ac trans]
+9.8 +4.5 70 +11  1015.1  0.1  685  266           
21 15.11.18 120 (ЮВ) н/о  {дождь}  10/0 средняя 
[As op]
+9 +4 71 +8  1016  0.2  686  267           
00 16.11.18 120 (ЮВ) н/о  {дождь}  10/0 средняя 
[As op]
+8 +4.6 79 +7  1016.4  0.2  686  268           
03 16.11.18 120 (ЮВ) н/о    6/0 средняя 
[Ac trans]
+6.2 +3.3 82 +7  1017.3  686  270    -0.5       
06 16.11.18 050 (СВ) 20000 м    8/3 1000 м средняя 
[Cu med, cong|Ac trans]
+8.4 +5.9 84 +8  1020.3  3.4  688  268  +6.1    0.0    влажная 
09 16.11.18 130 (ЮВ) 20000 м    5/3 1000 м средняя, верхняя 
[Cu med, cong|Ac trans|Ci fib]
+14.8 +6.4 57 +15  1017.7  -0.2  688  262           
12 16.11.18 тихо ()   20000 м    8/3 1000 м средняя, верхняя 
[Cu med, cong|Ac trans|Ci fib]
+17 +7 52 +17  1015.6  -1.1  687  259           
15 16.11.18 тихо ()   н/о    8/3 600 м кучево-дожд., средняя 
[Cb cap|Ac trans]
+11.8 +6.8 71 +12  1017.9  0.4  688  264           
18 16.11.18 000 (С) 84  <0100 м    3/3 <0100 м кучево-дожд., средняя 
[Cb cap|Ac trans]
+6.4   1020.8  1.5  689      +17.2       
21 16.11.18 130 (ЮВ) н/о    6/3 600 м кучево-дожд., средняя 
[Cb cap|Ac trans]
+7.6 +4.6 81 +7  1022.2  0.8  689  269           
00 17.11.18 130 (ЮВ) н/о    6/3 600 м кучево-дожд., средняя 
[Cb cap|Ac trans]
+6 +3.4 83 +5  1022.7  689  271           
03 17.11.18 тихо ()   н/о    6/3 600 м кучево-дожд., средняя 
[Cb cap|Ac trans]
+4.8 +4.1 95 +5  1023.7  -0.4  690  272           
06 17.11.18 120 (ЮВ) 20000 м    8/0 средняя, верхняя 
[Ac trans|Ci fib]
+17.8 +6.1 46 +19  1025  2.3  691  260  +4.7        влажная 
09 17.11.18 120 (ЮВ) 20000 м    8/0 средняя, верхняя 
[Ac trans|Ci fib]
+11.1 +7.1 76 +11  1024.5  0.7  692  267           
12 17.11.18 тихо ()   20000 м    8/3 1000 м средняя, верхняя 
[Cu med, cong|Ac trans|Ci fib]
+15.2 +10 71 +18  1021.7  -1.1  691  262           
15 17.11.18 тихо ()   н/о    6/3 1000 м средняя 
[Cu med, cong|Ac trans]
+10.2 +5 70 +10  1023.6  691  267           
21 17.11.18 тихо ()   н/о    3/0 средняя 
[Cu med, cong|Ac trans]
+2.8 +2 94 +3  1027.9  692  275           
00 18.11.18 тихо ()   н/о    3/0 средняя 
[Ac trans]
+2 +1.2 94 +2  1028.6  0.4  692  277           
03 18.11.18 тихо ()   н/о    ясно 
-0.4 -1.3 94 -0  1029.5  0.2  692  279           
06 18.11.18 тихо ()   20000 м    8/3 600 м кучево-дожд., средняя 
[Cb cap|Ac trans]
+2.8 +1 88 +3  1029.4  0.7  693  276  -0.1        замёрзшая 
09 18.11.18 200 (Ю) 20000 м    8/3 600 м кучево-дожд., средняя 
[Cb cap|Ac trans]
+8.4 +1.7 63 +8  1025.3  -1.5  692  270           
Время (UTC), дата Ветер
(°,м/с) 
Видим.   Явления Облачность Т
(°С)
Тd
(°С)
f(%) Тe
(°С)
Pmin
(гПа)
dP
(гПа)
Po
(мм)
O2
(г/м3)
Тmin Tmax R s Состояние
почвы

Для получения пояснительной информации подведите курсор к названию столбца.

ПОГОДА в Нахчиване - архив

Всё, что Вы хотите узнать о погоде в Нахчиване - удобно и подробно!

Выберите нужную дату (начиная с 1 января 2015* года) и нажмите кнопку "Найти".
Будут отображены архивные сводки погоды по пункту Нахчиван, начиная с указанной даты.


Отображать данные в формате CSV (для использования в таблицах Excel)


Внимание! Наш архив погоды предназначен исключительно для личного некоммерческого использования в познавательных целях. Если Вам необходимы официальные справки о состоянии погоды (для производственных, юридических, коммерческих и т.п. целей), обращайтесь в органы Росгидромета.

*Примечание: данная дата относится к архиву по метеостанциям СССР (Россия, СНГ, Балтия).
Архив по метеостанциям Зарубежной Европы и Азии (кроме Китая) хранится 10 дней, по другим регионам земного шара (Китай, Африка, Америка, Австралия, Океания) - 1 день.

Нахчиван - район местоположения метеостанции


Название, широта, долгота, высота метеостанции:
Нахчиван 39.2°ш. 45.4°д. 873 м над ур. моря [Азербайджан]

Дополнительная информация

В oтличие oт бoльшинства пoгoдных сайтoв мы публикуем пoдрoбную метеoинфoрмацию в детальнoм прoфессиoнальнoм фoрмате.

Характеристики температуры и влажнoсти вoздуха измеряются на высoте 2 м в тени вдали oт зданий и деревьев.
Скoрoсть ветра измеряется на высoте 10 м (на урoвне рoста челoвека скoрoсть ветра ниже в 1.5-2 раза). Если метеoстанция нахoдится в гoрoде или в лесу, тo скoрoсть ветра занижена на 2-4 м/с пo сравнению с oткрытым местoм. Скoрoсть ветра над акватoриями крупных рек и oзёр, а также на вершинах хoлмoв на 2-5 м/с выше, чем в oбычных услoвиях.
Атмoсфернoе давление в разных тoчках местнoсти мoжет значительнo oтличаться oт давления на метеoстанции, в зависимoсти oт услoвий рельефа (при пoдъёме на 10 м давление пoнижается примернo на 1 мм рт.ст.).